VLG112 LEBL-LPPT

Flight info

Callsign VLG112
Flight time 1h 28m
Altitude 33000
Route SENIA DCT DORMI DCT CRETA DCT NEXAS DCT DISVU DCT ADUXO N975 PALIO DCT AKOKI DCT GOTOR DCT TLD DCT NATPA DCT MELON DCT CCS DCT ELVAR DCT UPULO
Aircraft A21N/M-SDE2E3FGHIJ1RWXY/LB1

Departure

Time 2026-05-06 20:31
Airport Josep Tarradellas Barcelona-El Prat Airport (LEBL)

Arrival

Time 2026-05-06 22:00
Airport Lisbon Humberto Delgado Airport (LPPT)
Time Latitude Longitude Altitude Speed Heading
2026-05-06 20:09 41.29174 2.08017 -3 ft 0 kts 156°
2026-05-06 20:22 41.29188 2.08009 27 ft 4 kts 155°
2026-05-06 20:22 41.29212 2.07994 27 ft 3 kts 155°
2026-05-06 20:22 41.29231 2.07980 27 ft 5 kts 133°
2026-05-06 20:23 41.29240 2.07952 28 ft 6 kts 80°
2026-05-06 20:23 41.29232 2.07921 25 ft 6 kts 65°
2026-05-06 20:23 41.29225 2.07901 27 ft 1 kts 65°
2026-05-06 20:25 41.29226 2.07905 27 ft 1 kts 65°
2026-05-06 20:25 41.29233 2.07923 25 ft 4 kts 65°
2026-05-06 20:25 41.29249 2.07969 24 ft 7 kts 65°
2026-05-06 20:25 41.29274 2.08043 25 ft 10 kts 65°
2026-05-06 20:26 41.29307 2.08142 24 ft 12 kts 66°
2026-05-06 20:26 41.29344 2.08251 25 ft 14 kts 66°
2026-05-06 20:26 41.29365 2.08359 24 ft 13 kts 117°
2026-05-06 20:26 41.29287 2.08426 26 ft 14 kts 155°
2026-05-06 20:27 41.29193 2.08483 25 ft 15 kts 155°
2026-05-06 20:27 41.29094 2.08543 23 ft 16 kts 155°
2026-05-06 20:27 41.28988 2.08607 24 ft 17 kts 155°
2026-05-06 20:27 41.28886 2.08670 22 ft 14 kts 142°
2026-05-06 20:28 41.28883 2.08793 23 ft 15 kts 65°
2026-05-06 20:28 41.28928 2.08925 22 ft 16 kts 65°
2026-05-06 20:28 41.28977 2.09065 22 ft 17 kts 65°
2026-05-06 20:28 41.29028 2.09213 22 ft 18 kts 65°
2026-05-06 20:29 41.29081 2.09369 23 ft 19 kts 65°
2026-05-06 20:29 41.29137 2.09532 22 ft 20 kts 65°
2026-05-06 20:29 41.29196 2.09701 22 ft 21 kts 65°
2026-05-06 20:29 41.29256 2.09878 22 ft 21 kts 65°
2026-05-06 20:30 41.29273 2.10024 21 ft 16 kts 110°
2026-05-06 20:30 41.29226 2.10292 22 ft 16 kts 179°
2026-05-06 20:30 41.29164 2.10161 23 ft 26 kts 246°
2026-05-06 20:31 41.29001 2.09685 25 ft 93 kts 245°
2026-05-06 20:31 41.28632 2.08607 27 ft 162 kts 245°
2026-05-06 20:31 41.28124 2.07157 473 ft 175 kts 244°
2026-05-06 20:31 41.27515 2.05760 1236 ft 174 kts 226°
2026-05-06 20:32 41.26389 2.05071 1664 ft 191 kts 182°
2026-05-06 20:32 41.25021 2.05233 2184 ft 204 kts 176°
2026-05-06 20:32 41.23566 2.05381 2783 ft 214 kts 179°
2026-05-06 20:32 41.22060 2.05477 3438 ft 221 kts 180°
2026-05-06 20:33 41.20497 2.05139 3782 ft 239 kts 208°
2026-05-06 20:33 41.19225 2.03647 4188 ft 254 kts 240°
2026-05-06 20:33 41.18565 2.01442 4857 ft 262 kts 254°
2026-05-06 20:33 41.18059 1.99099 5659 ft 265 kts 255°
2026-05-06 20:34 41.17535 1.96732 6444 ft 269 kts 255°
2026-05-06 20:34 41.16987 1.94349 7218 ft 271 kts 254°
2026-05-06 20:34 41.16401 1.91876 7637 ft 290 kts 253°
2026-05-06 20:34 41.15776 1.89268 7930 ft 311 kts 253°
2026-05-06 20:35 41.15092 1.86443 8193 ft 331 kts 253°
2026-05-06 20:35 41.14368 1.83471 8617 ft 343 kts 253°
2026-05-06 20:35 41.13624 1.80435 9338 ft 347 kts 253°
2026-05-06 20:35 41.12873 1.77381 10088 ft 349 kts 253°
2026-05-06 20:36 41.12116 1.74308 10752 ft 352 kts 253°
2026-05-06 20:36 41.11350 1.71203 11399 ft 356 kts 253°
2026-05-06 20:36 41.10574 1.68060 12046 ft 360 kts 253°
2026-05-06 20:36 41.09791 1.64888 12706 ft 364 kts 253°
2026-05-06 20:37 41.08999 1.61684 13363 ft 368 kts 252°
2026-05-06 20:37 41.08198 1.58447 13960 ft 371 kts 252°
2026-05-06 20:37 41.07390 1.55184 14574 ft 373 kts 252°
2026-05-06 20:37 41.06579 1.51912 15187 ft 375 kts 252°
2026-05-06 20:38 41.05759 1.48616 15773 ft 377 kts 252°
2026-05-06 20:38 41.04934 1.45305 16380 ft 380 kts 252°
2026-05-06 20:38 41.04114 1.42021 16983 ft 382 kts 252°
2026-05-06 20:38 41.03276 1.38672 17610 ft 384 kts 252°
2026-05-06 20:39 41.02434 1.35311 18198 ft 386 kts 252°
2026-05-06 20:39 41.01585 1.31927 18726 ft 388 kts 252°
2026-05-06 20:39 41.00733 1.28531 19250 ft 389 kts 252°
2026-05-06 20:39 40.99875 1.25118 19780 ft 390 kts 252°
2026-05-06 20:40 40.99015 1.21702 20288 ft 392 kts 252°
2026-05-06 20:40 40.98152 1.18276 20796 ft 394 kts 252°
2026-05-06 20:40 40.97280 1.14826 21297 ft 395 kts 252°
2026-05-06 20:40 40.96403 1.11367 21759 ft 398 kts 252°
2026-05-06 20:41 40.95522 1.07890 22220 ft 400 kts 252°
2026-05-06 20:41 40.94638 1.04389 22679 ft 402 kts 252°
2026-05-06 20:41 40.93750 1.00880 23150 ft 403 kts 252°
2026-05-06 20:41 40.92855 0.97354 23598 ft 405 kts 252°
2026-05-06 20:42 40.91956 0.93816 24012 ft 406 kts 252°
2026-05-06 20:42 40.91064 0.90311 24395 ft 407 kts 252°
2026-05-06 20:42 40.90157 0.86765 24779 ft 408 kts 251°
2026-05-06 20:42 40.89246 0.83201 25219 ft 408 kts 251°
2026-05-06 20:43 40.88337 0.79641 25633 ft 409 kts 251°
2026-05-06 20:43 40.87458 0.76063 26040 ft 410 kts 254°
2026-05-06 20:43 40.86926 0.72352 26381 ft 413 kts 263°
2026-05-06 20:43 40.86844 0.68551 26729 ft 416 kts 268°
2026-05-06 20:44 40.86893 0.64723 27082 ft 417 kts 269°
2026-05-06 20:44 40.86943 0.60894 27526 ft 415 kts 268°
2026-05-06 20:44 40.86982 0.57094 28033 ft 412 kts 268°
2026-05-06 20:44 40.87011 0.53310 28548 ft 410 kts 268°
2026-05-06 20:45 40.87035 0.49561 29060 ft 407 kts 267°
2026-05-06 20:45 40.87058 0.45834 29540 ft 404 kts 267°
2026-05-06 20:45 40.87079 0.42142 30008 ft 401 kts 267°
2026-05-06 20:45 40.87098 0.38464 30395 ft 399 kts 267°
2026-05-06 20:46 40.87116 0.34848 30633 ft 400 kts 267°
2026-05-06 20:46 40.87132 0.31166 30832 ft 402 kts 267°
2026-05-06 20:46 40.87148 0.27470 31099 ft 402 kts 267°
2026-05-06 20:46 40.87163 0.23781 31386 ft 401 kts 267°
2026-05-06 20:47 40.87179 0.20094 31689 ft 400 kts 267°
2026-05-06 20:47 40.87194 0.16417 31991 ft 399 kts 267°
2026-05-06 20:47 40.87204 0.12757 32286 ft 398 kts 267°
2026-05-06 20:47 40.87214 0.09109 32562 ft 397 kts 267°
2026-05-06 20:48 40.87222 0.05461 32803 ft 397 kts 267°
2026-05-06 20:48 40.87232 0.01800 32992 ft 398 kts 267°
2026-05-06 20:48 40.87235 -0.01877 33019 ft 403 kts 267°
2026-05-06 20:49 40.87232 -0.09343 32987 ft 413 kts 267°
2026-05-06 20:49 40.87237 -0.16987 32979 ft 417 kts 267°
2026-05-06 20:50 40.87250 -0.24654 32971 ft 417 kts 267°
2026-05-06 20:50 40.87239 -0.32315 32977 ft 417 kts 267°
2026-05-06 20:51 40.87233 -0.39972 32977 ft 417 kts 267°
2026-05-06 20:51 40.87215 -0.46337 32977 ft 417 kts 267°
2026-05-06 20:52 40.87197 -0.54000 32980 ft 417 kts 267°
2026-05-06 20:52 40.87171 -0.61661 32983 ft 417 kts 267°
2026-05-06 20:53 40.87140 -0.69312 32983 ft 417 kts 267°
2026-05-06 20:53 40.87069 -0.76969 32995 ft 416 kts 264°
2026-05-06 20:54 40.85754 -0.84403 32998 ft 417 kts 249°
2026-05-06 20:54 40.83720 -0.91583 32997 ft 418 kts 249°
2026-05-06 20:55 40.81701 -0.98780 33000 ft 417 kts 249°
2026-05-06 20:55 40.79714 -1.05923 33006 ft 417 kts 249°
2026-05-06 20:56 40.77710 -1.13123 32992 ft 418 kts 249°
2026-05-06 20:56 40.75689 -1.20347 32990 ft 422 kts 249°
2026-05-06 20:57 40.73653 -1.27621 32999 ft 423 kts 249°
2026-05-06 20:57 40.72107 -1.33131 32991 ft 423 kts 249°
2026-05-06 20:58 40.70070 -1.40393 32989 ft 422 kts 249°
2026-05-06 20:58 40.68023 -1.47656 32989 ft 423 kts 249°
2026-05-06 20:59 40.65971 -1.54916 32981 ft 425 kts 249°
2026-05-06 20:59 40.63889 -1.62253 32983 ft 429 kts 249°
2026-05-06 21:00 40.61795 -1.69613 32985 ft 429 kts 249°
2026-05-06 21:00 40.59707 -1.76914 32980 ft 429 kts 249°
2026-05-06 21:01 40.57603 -1.84263 32975 ft 429 kts 249°
2026-05-06 21:01 40.55496 -1.91612 32972 ft 429 kts 249°
2026-05-06 21:02 40.53373 -1.99003 32954 ft 433 kts 249°
2026-05-06 21:02 40.51230 -2.06418 32954 ft 433 kts 249°
2026-05-06 21:03 40.49086 -2.13817 32940 ft 433 kts 249°
2026-05-06 21:03 40.46934 -2.21218 32938 ft 433 kts 249°
2026-05-06 21:04 40.44793 -2.28556 32924 ft 433 kts 249°
2026-05-06 21:04 40.42623 -2.35972 32930 ft 433 kts 249°
2026-05-06 21:05 40.40476 -2.43308 32928 ft 433 kts 249°
2026-05-06 21:05 40.38306 -2.50684 32918 ft 433 kts 249°
2026-05-06 21:06 40.36383 -2.58160 32919 ft 433 kts 253°
2026-05-06 21:06 40.34747 -2.65757 32912 ft 433 kts 254°
2026-05-06 21:07 40.33103 -2.73357 32914 ft 434 kts 254°
2026-05-06 21:07 40.31459 -2.80920 32912 ft 434 kts 254°
2026-05-06 21:08 40.29797 -2.88528 32912 ft 434 kts 254°
2026-05-06 21:08 40.28132 -2.96129 32912 ft 434 kts 254°
2026-05-06 21:09 40.26459 -3.03733 32910 ft 434 kts 254°
2026-05-06 21:09 40.24784 -3.11308 32908 ft 434 kts 254°
2026-05-06 21:10 40.23099 -3.18886 32904 ft 434 kts 253°
2026-05-06 21:10 40.21402 -3.26477 32903 ft 434 kts 254°
2026-05-06 21:11 40.19726 -3.34008 32903 ft 433 kts 254°
2026-05-06 21:11 40.18037 -3.41572 32900 ft 433 kts 253°
2026-05-06 21:12 40.16341 -3.49131 32900 ft 434 kts 253°
2026-05-06 21:12 40.14634 -3.56704 32899 ft 434 kts 253°
2026-05-06 21:13 40.12925 -3.64261 32898 ft 434 kts 253°
2026-05-06 21:13 40.11210 -3.71814 32897 ft 434 kts 253°
2026-05-06 21:14 40.09488 -3.79372 32885 ft 434 kts 253°
2026-05-06 21:14 40.07761 -3.86923 32880 ft 434 kts 253°
2026-05-06 21:15 40.06038 -3.94421 32883 ft 434 kts 253°
2026-05-06 21:15 40.04302 -4.01959 32883 ft 434 kts 253°
2026-05-06 21:16 40.02563 -4.09503 32882 ft 434 kts 253°
2026-05-06 21:16 40.00816 -4.17045 32875 ft 434 kts 253°
2026-05-06 21:17 39.99061 -4.24584 32879 ft 434 kts 253°
2026-05-06 21:17 39.97321 -4.32070 32879 ft 434 kts 253°
2026-05-06 21:18 39.95728 -4.39665 32879 ft 434 kts 255°
2026-05-06 21:18 39.94185 -4.47267 32861 ft 434 kts 255°
2026-05-06 21:19 39.92645 -4.54864 32876 ft 433 kts 255°
2026-05-06 21:19 39.91103 -4.62453 32873 ft 432 kts 254°
2026-05-06 21:20 39.89565 -4.69970 32870 ft 432 kts 254°
2026-05-06 21:20 39.88007 -4.77526 32869 ft 432 kts 254°
2026-05-06 21:21 39.86444 -4.85087 32871 ft 432 kts 254°
2026-05-06 21:21 39.84881 -4.92640 32867 ft 432 kts 254°
2026-05-06 21:22 39.83306 -5.00208 32869 ft 432 kts 253°
2026-05-06 21:22 39.81732 -5.07743 32865 ft 432 kts 253°
2026-05-06 21:23 39.80155 -5.15283 32866 ft 432 kts 253°
2026-05-06 21:23 39.78582 -5.22763 32857 ft 432 kts 253°
2026-05-06 21:24 39.76992 -5.30287 32861 ft 432 kts 253°
2026-05-06 21:24 39.75394 -5.37826 32860 ft 432 kts 253°
2026-05-06 21:25 39.73797 -5.45357 32858 ft 432 kts 253°
2026-05-06 21:25 39.72194 -5.52880 32857 ft 432 kts 253°
2026-05-06 21:26 39.70587 -5.60400 32856 ft 432 kts 253°
2026-05-06 21:26 39.68971 -5.67919 32858 ft 432 kts 253°
2026-05-06 21:27 39.67363 -5.75385 32865 ft 432 kts 252°
2026-05-06 21:27 39.65739 -5.82896 32839 ft 432 kts 252°
2026-05-06 21:28 39.64113 -5.90403 32851 ft 432 kts 252°
2026-05-06 21:28 39.62481 -5.97903 32852 ft 432 kts 252°
2026-05-06 21:29 39.60844 -6.05389 32854 ft 432 kts 252°
2026-05-06 21:29 39.59205 -6.12881 32858 ft 432 kts 252°
2026-05-06 21:30 39.57551 -6.20371 32856 ft 432 kts 252°
2026-05-06 21:30 39.55911 -6.27797 32855 ft 432 kts 252°
2026-05-06 21:31 39.54256 -6.35283 32858 ft 432 kts 252°
2026-05-06 21:31 39.52564 -6.42750 32851 ft 431 kts 249°
2026-05-06 21:32 39.50083 -6.49807 32861 ft 430 kts 242°
2026-05-06 21:32 39.46051 -6.60184 32862 ft 430 kts 242°
2026-05-06 21:33 39.43381 -6.67118 32860 ft 430 kts 242°
2026-05-06 21:33 39.41501 -6.74438 32856 ft 435 kts 261°
2026-05-06 21:34 39.41506 -6.78370 32852 ft 440 kts 273°
2026-05-06 21:34 39.41996 -6.82248 32858 ft 443 kts 277°
2026-05-06 21:34 39.43355 -6.90036 32879 ft 445 kts 279°
2026-05-06 21:35 39.44403 -6.97867 32868 ft 438 kts 266°
2026-05-06 21:35 39.44027 -7.01740 32876 ft 433 kts 253°
2026-05-06 21:35 39.42981 -7.05376 32876 ft 432 kts 242°
2026-05-06 21:36 39.39734 -7.11860 32875 ft 429 kts 235°
2026-05-06 21:36 39.36375 -7.18249 32887 ft 429 kts 235°
2026-05-06 21:37 39.33056 -7.24667 32885 ft 429 kts 236°
2026-05-06 21:37 39.29742 -7.31080 32898 ft 429 kts 236°
2026-05-06 21:38 39.26429 -7.37495 32896 ft 429 kts 236°
2026-05-06 21:38 39.23111 -7.43902 32891 ft 430 kts 236°
2026-05-06 21:39 39.20345 -7.49227 32900 ft 430 kts 236°
2026-05-06 21:39 39.17025 -7.55626 32903 ft 430 kts 236°
2026-05-06 21:40 39.13700 -7.62031 32919 ft 430 kts 236°
2026-05-06 21:40 39.10360 -7.68433 32909 ft 430 kts 236°
2026-05-06 21:41 39.08712 -7.71608 32788 ft 419 kts 237°
2026-05-06 21:41 39.07354 -7.74892 32078 ft 416 kts 243°
2026-05-06 21:41 39.06145 -7.78277 31179 ft 417 kts 244°
2026-05-06 21:41 39.04939 -7.81691 30153 ft 421 kts 243°
2026-05-06 21:42 39.03701 -7.85142 28732 ft 429 kts 243°
2026-05-06 21:42 39.02428 -7.88655 27369 ft 436 kts 243°
2026-05-06 21:42 39.01138 -7.92190 26345 ft 436 kts 243°
2026-05-06 21:42 38.99858 -7.95697 25699 ft 429 kts 243°
2026-05-06 21:43 38.98607 -7.99114 25315 ft 414 kts 243°
2026-05-06 21:43 38.97391 -8.02431 25104 ft 408 kts 243°
2026-05-06 21:43 38.96189 -8.05702 24877 ft 400 kts 243°
2026-05-06 21:43 38.95011 -8.08910 24017 ft 395 kts 243°
2026-05-06 21:44 38.93854 -8.12057 23020 ft 394 kts 243°
2026-05-06 21:44 38.92686 -8.15231 21995 ft 391 kts 243°
2026-05-06 21:44 38.91529 -8.18368 21063 ft 386 kts 243°
2026-05-06 21:44 38.90385 -8.21470 20179 ft 382 kts 243°
2026-05-06 21:45 38.89251 -8.24531 19321 ft 378 kts 243°
2026-05-06 21:45 38.88130 -8.27562 18489 ft 374 kts 244°
2026-05-06 21:45 38.87018 -8.30568 17679 ft 371 kts 244°
2026-05-06 21:45 38.85911 -8.33548 17045 ft 371 kts 244°
2026-05-06 21:46 38.84756 -8.36657 16496 ft 392 kts 244°
2026-05-06 21:46 38.83586 -8.39807 15944 ft 389 kts 244°
2026-05-06 21:46 38.82422 -8.42939 15421 ft 386 kts 244°
2026-05-06 21:46 38.81271 -8.46039 14909 ft 384 kts 244°
2026-05-06 21:47 38.80124 -8.49123 14371 ft 382 kts 244°
2026-05-06 21:47 38.78985 -8.52179 13845 ft 379 kts 244°
2026-05-06 21:47 38.77855 -8.55207 13219 ft 376 kts 244°
2026-05-06 21:47 38.76733 -8.58218 12641 ft 374 kts 244°
2026-05-06 21:48 38.75629 -8.61178 12161 ft 371 kts 244°
2026-05-06 21:48 38.74518 -8.64146 11661 ft 366 kts 243°
2026-05-06 21:48 38.73430 -8.67053 11241 ft 356 kts 243°
2026-05-06 21:48 38.72379 -8.69859 10981 ft 343 kts 243°
2026-05-06 21:49 38.71364 -8.72563 10779 ft 329 kts 244°
2026-05-06 21:49 38.70396 -8.75144 10605 ft 315 kts 243°
2026-05-06 21:49 38.69466 -8.77618 10425 ft 302 kts 244°
2026-05-06 21:49 38.68572 -8.79992 10194 ft 292 kts 244°
2026-05-06 21:50 38.67687 -8.82341 9643 ft 294 kts 243°
2026-05-06 21:50 38.66798 -8.84700 9134 ft 293 kts 244°
2026-05-06 21:50 38.65914 -8.87038 8683 ft 291 kts 243°
2026-05-06 21:50 38.65037 -8.89362 8270 ft 289 kts 244°
2026-05-06 21:51 38.64167 -8.91669 7888 ft 287 kts 243°
2026-05-06 21:51 38.63311 -8.93934 7533 ft 286 kts 243°
2026-05-06 21:51 38.62447 -8.96218 7157 ft 284 kts 243°
2026-05-06 21:51 38.61589 -8.98482 6768 ft 281 kts 243°
2026-05-06 21:52 38.60737 -9.00725 6379 ft 280 kts 244°
2026-05-06 21:52 38.59891 -9.02953 5968 ft 278 kts 244°
2026-05-06 21:52 38.59049 -9.05171 5576 ft 276 kts 244°
2026-05-06 21:52 38.58213 -9.07372 5234 ft 274 kts 244°
2026-05-06 21:53 38.57379 -9.09567 5148 ft 275 kts 245°
2026-05-06 21:53 38.56554 -9.11736 5220 ft 262 kts 245°
2026-05-06 21:53 38.55788 -9.13747 5260 ft 243 kts 245°
2026-05-06 21:53 38.55061 -9.15653 5194 ft 239 kts 244°
2026-05-06 21:54 38.54316 -9.17609 5269 ft 246 kts 245°
2026-05-06 21:54 38.53807 -9.19641 5180 ft 243 kts 268°
2026-05-06 21:54 38.54186 -9.21696 4881 ft 241 kts 303°
2026-05-06 21:54 38.55414 -9.23076 4530 ft 237 kts 338°
2026-05-06 21:55 38.57022 -9.23536 4192 ft 237 kts 351°
2026-05-06 21:55 38.58625 -9.23825 3965 ft 230 kts
2026-05-06 21:55 38.60189 -9.23399 3792 ft 230 kts 19°
2026-05-06 21:55 38.61669 -9.22564 3556 ft 231 kts 23°
2026-05-06 21:56 38.63104 -9.21667 3258 ft 227 kts 22°
2026-05-06 21:56 38.64526 -9.20862 2957 ft 220 kts 20°
2026-05-06 21:56 38.65914 -9.20117 2653 ft 211 kts 20°
2026-05-06 21:56 38.67232 -9.19411 2390 ft 201 kts 19°
2026-05-06 21:57 38.68505 -9.18732 2129 ft 195 kts 19°
2026-05-06 21:57 38.69706 -9.18091 1933 ft 177 kts 19°
2026-05-06 21:57 38.70779 -9.17518 1717 ft 157 kts 19°
2026-05-06 21:57 38.71710 -9.17020 1472 ft 133 kts 19°
2026-05-06 21:58 38.72536 -9.16579 1273 ft 128 kts 19°
2026-05-06 21:58 38.73376 -9.16131 1075 ft 132 kts 17°
2026-05-06 21:58 38.74227 -9.15677 895 ft 133 kts 19°
2026-05-06 21:58 38.75076 -9.15223 728 ft 133 kts 19°
2026-05-06 21:59 38.75909 -9.14777 548 ft 132 kts 17°
2026-05-06 21:59 38.76757 -9.14318 412 ft 133 kts 18°
2026-05-06 21:59 38.77582 -9.13881 373 ft 116 kts 21°
2026-05-06 21:59 38.78176 -9.13569 372 ft 67 kts 20°
2026-05-06 22:00 38.78466 -9.13418 370 ft 18 kts 24°
2026-05-06 22:00 38.78541 -9.13321 366 ft 16 kts 88°
2026-05-06 22:00 38.78470 -9.13226 366 ft 17 kts 168°
2026-05-06 22:00 38.78352 -9.13247 367 ft 18 kts 202°
2026-05-06 22:01 38.78234 -9.13310 366 ft 19 kts 202°
2026-05-06 22:01 38.78109 -9.13377 363 ft 20 kts 202°
2026-05-06 22:01 38.77994 -9.13409 361 ft 17 kts 163°
2026-05-06 22:01 38.77882 -9.13381 355 ft 17 kts 169°
2026-05-06 22:02 38.77796 -9.13358 356 ft 6 kts 168°
2026-05-06 22:02 38.77769 -9.13351 358 ft 3 kts 168°
2026-05-06 22:02 38.77757 -9.13347 351 ft 1 kts 166°
2026-05-06 22:02 38.77746 -9.13344 350 ft 2 kts 158°
2026-05-06 22:03 38.77710 -9.13297 351 ft 8 kts 123°
2026-05-06 22:03 38.77682 -9.13238 347 ft 7 kts 121°
2026-05-06 22:03 38.77671 -9.13214 343 ft 1 kts 121°
2026-05-06 22:03 38.77667 -9.13207 345 ft 0 kts 121°
2026-05-06 22:04 38.77667 -9.13206 345 ft 0 kts 121°